Simultaneous Nadir Overpasses (SNOs) Predictions

Prediction of SNOs between LANDSAT-8 and NOAA-19 Satellite Orbit:

Table of predicted SNOs for the next 14.0 days since TLE Epoch: 5/17/2019
Index Date (LANDSAT-8) Time (LANDSAT-8) Lat,Lon (LANDSAT-8) SZA (LANDSAT-8 ) Date (NOAA-19) Time (NOAA-19) Lat,Lon (NOAA-19) SZA (NOAA-19 ) Distance(km) Time Diff (sec)
1 05/18/2019 14:32:27 78.76, -18.79 59.88 05/18/2019 14:32:01 78.76, -18.96 59.86 3.74 26
2 05/18/2019 15:21:56 -78.70, 148.48 120.22 05/18/2019 15:22:58 -78.73, 148.51 120.17 3.46 62
3 05/20/2019 20:06:13 -78.77, 77.83 120.58 05/20/2019 20:05:25 -78.76, 77.77 120.62 2.39 48
4 05/20/2019 20:55:40 78.72,-114.83 59.34 05/20/2019 20:56:27 78.74,-114.90 59.37 3.13 47
5 05/23/2019 01:39:57 78.79, 174.51 59.00 05/23/2019 01:38:53 78.76, 174.44 58.95 3.64 64
6 05/23/2019 02:29:26 -78.73, -18.20 121.10 05/23/2019 02:29:52 -78.76, -18.28 121.07 3.62 26
7 05/25/2019 08:03:10 78.75, 78.45 58.51 05/25/2019 08:03:19 78.76, 78.47 58.52 1.22 9
8 05/27/2019 13:36:56 -78.76, 175.07 121.87 05/27/2019 13:36:45 -78.77, 175.11 121.86 1.58 11
9 05/29/2019 19:10:40 78.76, -88.32 57.78 05/29/2019 19:10:11 78.78, -88.23 57.79 2.33 29




NCC Satellite Simultaneous Nadir Overpasses (SNOs) Prediction Service
